Burlington, IA

7:50 AM CDT on March 29, 2017 (GMT -0500)
Burlington Regional

Weather History for KBRL - May, 2014

Change the Weather History Date:

Tuesday, May 13, 2014

  Actual Average Record
Temperature  
Mean Temperature 52 °F 63 °F  
Max Temperature 57 °F 73 °F 94 °F (1915)
Min Temperature 46 °F 52 °F 34 °F (1996)
Degree Days  
Heating Degree Days 13 4  
Month to date heating degree days 65 74  
Since 1 July heating degree days 6746 5536  
Cooling Degree Days 0 2  
Month to date cooling degree days 35 19  
Year to date cooling degree days 43 39  
Growing Degree Days 4 (Base 50)    
Moisture  
Dew Point 47 °F    
Average Humidity 75    
Maximum Humidity 89    
Minimum Humidity 61    
Precipitation  
Precipitation T in 0.17 in 1.20 in (2005)
Month to date precipitation 1.12 2.08  
Year to date precipitation 10.70 11.49  
Sea Level Pressure  
Sea Level Pressure 30.04 in    
Wind  
Wind Speed 9 mph (NW)    
Max Wind Speed 18 mph    
Max Gust Speed 24 mph    
Visibility 10 miles    
Events Rain    
T = Trace of Precipitation, MM = Missing Value Source: NWS Daily Summary

Daily Weather History Graph

Daily Weather History Graph

Search for Another Location

Airport or City:

Trip Planner

Search our weather history database for the weather conditions in past years. The results will help you decide how hot, cold, wet, or windy it might be!

Date:

Astronomy

May. 13, 2014 Rise Set
Actual Time 5:49 AM CDT 8:13 PM CDT
Civil Twilight 5:18 AM CDT 8:44 PM CDT
Nautical Twilight 4:40 AM CDT 9:22 PM CDT
Astronomical Twilight 3:57 AM CDT 10:05 PM CDT
Moon 7:14 PM CDT (5/13) 5:06 AM CDT (5/13)
Length of Visible Light 15h 25m
Length of Day
14h 23m
Waxing Gibbous, 99% of the Moon is Illuminated
May 13
Waxing Gibbous
May 14
Full
May 21
Last Quarter
May 28
New
Jun 5
First Quarter

Hourly Weather History & Observations

Time (CDT) Temp. Dew Point Humidity Pressure Visibility Wind Dir Wind Speed Gust Speed Precip Events Conditions
12:27 AM 59.0 °F 57.0 °F 93% 29.87 in 7.0 mi WNW 12.7 mph 20.7 mph N/A   Overcast
12:53 AM 57.0 °F 55.0 °F 93% 29.88 in 10.0 mi WNW 11.5 mph - 0.00 in Rain Light Rain
1:35 AM 55.9 °F 54.0 °F 93% 29.92 in 10.0 mi WNW 10.4 mph 17.3 mph 0.01 in   Overcast
1:53 AM 55.9 °F 53.1 °F 90% 29.91 in 10.0 mi WNW 9.2 mph - 0.01 in   Overcast
2:27 AM 55.0 °F 53.1 °F 93% 29.94 in 10.0 mi West 8.1 mph - 0.00 in   Overcast
2:53 AM 54.0 °F 50.0 °F 86% 29.94 in 10.0 mi WNW 10.4 mph 20.7 mph 0.00 in   Overcast
3:53 AM 53.1 °F 48.9 °F 86% 29.94 in 10.0 mi NW 9.2 mph - N/A   Overcast
4:07 AM 53.1 °F 48.9 °F 86% 29.95 in 10.0 mi NW 8.1 mph - N/A   Overcast
4:15 AM 53.1 °F 48.0 °F 83% 29.95 in 10.0 mi WNW 11.5 mph - N/A   Overcast
4:53 AM 52.0 °F 46.9 °F 83% 29.95 in 10.0 mi NW 12.7 mph 19.6 mph N/A   Overcast
5:27 AM 51.1 °F 48.0 °F 89% 29.95 in 8.0 mi NW 10.4 mph - N/A   Overcast
5:34 AM 51.1 °F 48.0 °F 89% 29.95 in 10.0 mi NW 5.8 mph - N/A   Overcast
5:53 AM 51.1 °F 48.0 °F 89% 29.96 in 10.0 mi WNW 5.8 mph - N/A   Overcast
6:16 AM 52.0 °F 48.0 °F 86% 29.96 in 10.0 mi NNW 9.2 mph - N/A   Overcast
6:53 AM 51.1 °F 46.9 °F 86% 29.99 in 10.0 mi NW 9.2 mph - N/A   Overcast
7:53 AM 51.8 °F 46.4 °F 82% 30.01 in 10.0 mi NW 11.5 mph 18.4 mph N/A   Overcast
8:33 AM 51.1 °F 46.0 °F 83% 30.04 in 10.0 mi WNW 8.1 mph 17.3 mph N/A   Overcast
8:53 AM 51.1 °F 46.0 °F 83% 30.05 in 10.0 mi NW 10.4 mph - N/A   Overcast
10:53 AM 51.8 °F 44.6 °F 76% 30.08 in 10.0 mi NW 8.1 mph 18.4 mph N/A   Overcast
11:53 AM 51.1 °F 45.0 °F 80% 30.10 in 10.0 mi WNW 8.1 mph 18.4 mph N/A   Overcast
12:53 PM 52.0 °F 45.0 °F 77% 30.11 in 10.0 mi WNW 10.4 mph - N/A   Overcast
1:53 PM 53.1 °F 44.1 °F 71% 30.11 in 10.0 mi NW 15.0 mph 24.2 mph N/A   Overcast
2:53 PM 53.1 °F 44.1 °F 71% 30.13 in 10.0 mi NW 10.4 mph 19.6 mph N/A   Overcast
3:53 PM 54.0 °F 45.0 °F 72% 30.13 in 10.0 mi NW 12.7 mph 21.9 mph N/A   Overcast
4:36 PM 55.9 °F 45.0 °F 67% 30.12 in 10.0 mi NW 12.7 mph 21.9 mph N/A   Overcast
4:53 PM 55.9 °F 45.0 °F 67% 30.13 in 10.0 mi NW 12.7 mph 20.7 mph N/A   Overcast
5:53 PM 55.0 °F 43.0 °F 64% 30.15 in 10.0 mi NW 16.1 mph 23.0 mph N/A   Overcast
6:53 PM 55.9 °F 43.0 °F 62% 30.15 in 10.0 mi NW 11.5 mph - N/A   Overcast
7:53 PM 53.1 °F 43.0 °F 69% 30.17 in 10.0 mi NW 4.6 mph - N/A   Clear
8:53 PM 52.0 °F 43.0 °F 71% 30.17 in 10.0 mi NNW 4.6 mph - N/A   Clear
9:53 PM 50.0 °F 44.1 °F 80% 30.20 in 10.0 mi North 3.5 mph - N/A   Clear
10:53 PM 48.9 °F 44.1 °F 83% 30.23 in 10.0 mi NNW 3.5 mph - N/A   Clear
11:53 PM 48.9 °F 43.0 °F 80% 30.24 in 10.0 mi NNW 3.5 mph - N/A   Clear